Wind_Speed
42 44 45 47 47 47 46 45 45 44 43 42 42 43 43 42 40 40 38 37 35 34 33 32 30 30 29 28 27 26 25 24 25 25 24 24 24 24
40 42 43 45 47 48 47 47 47 46 45 43 42 42 43 43 42 41 40 39 38 35 33 33 32 31 30 29 28 27 27 26 26 25 25 24 24 24
38 40 42 44 46 48 48 48 49 48 45 44 43 44 44 43 42 42 40 40 39 37 35 34 33 32 31 30 29 29 28 27 27 27 26 25 25 24
35 37 39 42 44 46 48 49 49 49 47 46 44 44 43 42 42 42 41 39 39 38 37 36 34 32 32 31 31 30 29 28 28 27 26 25 24 24
32 35 37 39 42 44 46 47 47 47 47 47 46 45 43 43 42 41 41 41 39 38 38 36 35 35 34 33 32 31 31 29 28 27 26 25 24 23
29 32 35 37 39 41 43 46 46 45 44 44 46 47 45 45 44 42 41 41 40 39 38 37 37 36 35 33 33 32 30 29 28 27 26 25 23 23
26 29 31 34 36 38 40 42 45 45 44 43 44 46 46 45 45 43 41 41 40 39 38 37 36 36 35 35 34 33 31 29 28 27 25 23 22 22
22 25 28 31 33 35 36 38 40 42 42 42 42 42 44 45 43 43 42 42 41 40 39 38 36 36 36 35 34 33 30 28 27 26 25 23 22 21
18 21 23 27 30 32 34 36 37 37 38 39 40 40 41 42 42 42 41 41 40 40 40 39 38 37 36 35 33 30 29 28 27 25 24 22 21 20
15 17 20 23 27 30 31 33 35 34 34 36 36 36 38 39 41 40 39 39 39 40 39 37 37 37 36 33 31 29 28 26 25 24 22 21 20 19
12 14 17 20 23 25 28 30 32 33 32 33 33 33 34 36 37 39 38 38 38 37 37 37 36 34 33 31 28 27 26 25 23 22 21 19 18 18
9 11 13 16 19 21 23 26 29 30 30 31 32 32 33 35 36 37 37 37 37 37 37 35 34 32 30 29 27 26 24 23 22 21 19 19 18 18
5 7 10 12 15 18 20 22 24 27 29 29 29 31 32 35 36 36 35 35 34 34 33 32 30 29 28 27 26 25 25 23 22 20 20 20 19 18
4 4 6 8 11 14 17 19 20 22 24 26 27 29 30 30 31 32 32 32 31 31 30 29 28 27 27 26 25 24 23 22 20 20 20 19 18 18
6 3 3 5 7 9 12 15 17 20 22 22 23 24 25 26 27 28 29 29 29 28 27 26 25 25 25 24 24 23 22 21 21 20 20 19 18 17
7 5 3 1 4 7 9 12 15 16 19 21 21 22 24 24 24 25 26 26 27 25 25 25 25 25 24 24 23 23 22 21 20 20 19 18 18 17
8 5 3 1 3 5 8 10 13 15 17 19 20 20 21 22 22 22 24 25 25 24 24 24 23 23 22 22 22 22 21 20 19 19 18 18 18 17
8 6 3 1 2 4 6 9 11 13 15 17 18 19 20 22 22 22 22 23 23 23 23 23 23 23 22 21 21 20 20 19 19 19 18 18 17 17
7 5 3 1 2 4 6 7 9 11 13 15 16 18 19 20 20 21 21 21 21 22 22 22 22 22 21 21 20 20 19 19 19 19 18 18 17 17
7 5 4 3 3 4 6 7 9 11 13 14 15 16 17 18 19 19 19 20 20 20 20 20 20 21 21 21 20 20 19 19 18 18 18 18 17 17
8 6 5 4 5 6 7 8 10 11 13 14 14 15 16 17 18 18 19 20 20 20 20 20 20 20 20 20 20 20 20 20 19 18 18 17 17 17
10 8 7 6 7 7 7 9 10 12 13 14 15 16 16 17 18 18 19 19 20 20 20 20 20 20 20 20 20 20 20 20 19 19 18 18 18 18
13 11 10 10 9 10 10 10 11 13 14 15 16 16 17 17 18 19 19 19 20 20 20 20 20 20 20 20 20 20 19 19 19 19 19 19 18 18
Wind_Direction
238 238 238 237 236 235 235 234 233 232 232 234 233 233 234 235 236 238 239 240 242 245 247 249 251 253 256 260 263 266 269 272 277 280 282 285 288 291
239 238 237 237 236 234 234 234 232 232 232 233 234 233 234 236 237 238 238 240 241 244 246 248 250 252 256 259 261 264 268 271 274 277 279 282 286 290
240 238 238 237 237 235 235 234 233 232 231 231 233 233 234 235 237 238 239 240 241 242 244 246 248 251 255 258 261 263 266 268 271 273 276 280 285 289
241 240 239 238 237 236 235 234 234 234 233 231 231 232 233 235 237 236 238 238 239 241 243 245 247 251 253 256 259 262 264 265 268 271 274 278 283 286
242 241 240 239 238 237 236 236 235 235 235 234 233 234 234 235 235 236 238 238 239 241 242 244 246 249 253 256 257 260 261 263 267 270 273 277 280 284
244 242 240 239 239 238 238 237 236 235 236 235 234 235 235 235 234 236 237 237 238 240 241 243 246 248 250 252 255 258 260 263 265 268 271 275 278 281
245 243 241 239 238 236 236 237 237 237 237 237 236 237 236 234 234 235 236 237 238 238 239 242 244 247 249 251 254 255 259 261 262 266 269 271 274 278
246 244 241 237 236 234 235 235 235 235 236 237 236 235 235 234 233 234 236 236 238 238 239 241 243 246 249 251 253 254 255 257 258 262 265 267 269 270
249 244 240 236 234 233 233 233 231 232 233 233 232 233 234 233 233 233 232 232 235 237 238 241 242 244 247 248 249 250 252 254 256 260 261 262 263 268
256 248 242 238 234 233 230 229 229 230 231 232 231 231 230 229 230 231 232 232 233 233 236 239 240 243 246 244 245 248 250 251 255 255 256 259 262 264
262 252 245 239 236 234 231 229 227 226 227 228 227 227 226 225 226 229 231 231 230 231 234 237 238 240 241 240 243 245 246 249 251 252 254 257 260 263
270 254 246 241 235 233 229 228 228 227 224 223 221 220 221 220 223 226 228 228 232 233 234 235 236 236 236 239 242 242 245 247 247 249 253 256 259 260
285 260 250 246 237 232 228 226 227 226 223 220 217 217 217 217 218 218 219 223 226 229 231 232 232 232 234 237 239 242 244 244 244 247 252 254 254 254
326 278 254 244 232 228 223 221 221 218 217 217 215 213 213 213 214 215 217 221 224 225 225 225 226 228 232 233 236 239 239 239 242 246 249 250 249 250
1 336 286 244 221 215 211 209 208 208 210 210 211 212 211 210 211 214 217 219 219 218 219 221 224 227 230 231 233 234 235 238 242 244 244 243 244 244
9 7 3 243 202 197 198 199 198 200 205 206 208 210 209 209 210 210 212 214 215 217 220 223 225 227 229 229 230 230 232 237 239 239 239 239 240 242
12 14 23 91 183 187 189 191 195 198 199 201 202 206 210 210 210 210 210 210 212 215 218 220 222 223 224 226 227 229 231 233 235 236 237 238 239 242
10 13 19 55 171 181 191 197 199 201 200 201 202 204 207 208 209 209 211 211 211 214 216 217 219 221 222 224 226 227 228 230 232 233 234 236 239 242
3 2 356 310 205 195 193 192 193 196 199 201 202 202 202 204 207 208 209 210 212 214 216 216 218 218 220 222 224 225 228 230 229 230 233 235 239 242
348 343 329 291 250 225 213 209 203 197 198 202 203 203 202 204 203 204 206 208 208 210 212 213 215 216 219 221 223 225 226 227 228 230 234 236 239 243
324 318 306 279 256 242 230 220 213 210 208 206 207 207 206 205 204 205 207 208 208 210 213 216 217 218 220 223 224 225 226 228 230 232 234 236 240 245
303 296 288 275 258 246 237 230 221 216 213 211 210 210 209 209 208 207 207 207 209 211 213 216 218 221 222 224 224 224 225 227 229 232 235 239 244 247
286 281 275 265 255 246 240 235 229 223 220 217 215 214 213 212 211 210 210 211 212 213 214 217 219 220 221 222 222 223 225 229 231 234 238 243 247 249
Height
5773 5777 5782 5786 5790 5795 5800 5804 5809 5813 5818 5822 5826 5831 5835 5840 5844 5848 5852 5855 5859 5861 5864 5866 5868 5869 5871 5872 5872 5873 5873 5873 5873 5872 5871 5870 5868 5867
5764 5768 5771 5776 5780 5785 5789 5794 5799 5804 5808 5813 5817 5821 5826 5831 5835 5839 5843 5847 5851 5854 5857 5859 5861 5862 5864 5865 5866 5866 5867 5867 5867 5866 5865 5864 5863 5861
5755 5758 5762 5766 5770 5775 5779 5784 5789 5794 5799 5803 5807 5812 5817 5822 5827 5830 5835 5839 5843 5846 5849 5851 5853 5855 5857 5858 5859 5860 5860 5860 5860 5860 5859 5858 5857 5855
5746 5749 5753 5756 5760 5764 5769 5774 5779 5784 5789 5793 5798 5803 5808 5813 5817 5822 5826 5830 5834 5838 5841 5843 5846 5848 5849 5851 5852 5853 5853 5853 5853 5853 5853 5852 5851 5849
5738 5741 5744 5747 5751 5755 5759 5764 5769 5774 5779 5784 5788 5793 5798 5803 5808 5812 5817 5822 5826 5829 5832 5835 5838 5840 5842 5843 5844 5845 5846 5846 5847 5847 5846 5846 5845 5843
5729 5732 5735 5738 5742 5745 5750 5754 5759 5764 5769 5774 5779 5784 5789 5793 5798 5803 5808 5813 5817 5820 5824 5827 5829 5831 5834 5836 5837 5838 5838 5839 5840 5840 5840 5839 5838 5837
5722 5724 5726 5729 5733 5737 5740 5745 5750 5755 5759 5764 5769 5774 5779 5784 5789 5794 5799 5804 5807 5811 5815 5818 5821 5824 5826 5828 5829 5830 5831 5832 5832 5833 5833 5833 5832 5832
5715 5717 5719 5721 5725 5728 5732 5736 5741 5746 5751 5756 5760 5764 5770 5775 5780 5785 5790 5795 5799 5803 5806 5809 5812 5815 5818 5820 5821 5822 5824 5824 5825 5826 5826 5826 5826 5825
5709 5710 5712 5714 5717 5720 5724 5728 5733 5737 5742 5747 5751 5756 5761 5767 5772 5777 5781 5786 5790 5795 5798 5800 5804 5807 5809 5811 5813 5814 5816 5817 5818 5819 5819 5819 5819 5820
5704 5705 5706 5708 5710 5713 5716 5720 5725 5729 5734 5739 5744 5748 5752 5757 5762 5768 5772 5776 5781 5785 5789 5792 5795 5798 5801 5803 5805 5806 5808 5810 5811 5812 5813 5813 5814 5814
5700 5700 5701 5702 5704 5707 5710 5714 5718 5722 5726 5730 5735 5740 5744 5749 5754 5759 5764 5768 5772 5776 5780 5784 5787 5790 5793 5795 5797 5799 5801 5803 5804 5805 5807 5807 5808 5808
5697 5697 5697 5698 5699 5701 5704 5707 5711 5715 5719 5723 5728 5732 5737 5741 5746 5751 5756 5761 5765 5769 5772 5776 5779 5783 5785 5788 5790 5793 5794 5796 5798 5799 5800 5801 5802 5802
5695 5694 5694 5694 5695 5697 5699 5702 5706 5709 5713 5717 5722 5726 5730 5735 5739 5743 5749 5754 5758 5762 5766 5769 5772 5776 5779 5782 5784 5786 5788 5790 5792 5793 5794 5795 5796 5797
5694 5693 5693 5692 5693 5694 5696 5699 5702 5705 5709 5713 5716 5721 5725 5729 5733 5738 5742 5747 5751 5755 5759 5762 5766 5770 5773 5775 5778 5780 5782 5784 5786 5787 5789 5790 5791 5791
5695 5694 5692 5692 5692 5693 5694 5696 5699 5702 5706 5709 5712 5716 5720 5724 5728 5733 5737 5741 5745 5749 5752 5756 5760 5763 5766 5769 5772 5774 5776 5778 5780 5782 5783 5784 5785 5786
5697 5695 5693 5693 5692 5693 5694 5695 5698 5700 5703 5707 5710 5713 5716 5720 5724 5728 5732 5736 5740 5744 5747 5751 5755 5758 5760 5763 5766 5769 5771 5773 5775 5776 5778 5779 5780 5781
5699 5697 5696 5695 5694 5694 5695 5696 5698 5700 5702 5705 5708 5711 5714 5717 5721 5724 5728 5732 5735 5739 5743 5746 5749 5752 5755 5758 5761 5763 5766 5768 5770 5771 5773 5774 5776 5777
5702 5700 5698 5697 5696 5696 5696 5697 5698 5700 5702 5704 5706 5709 5712 5715 5718 5721 5725 5728 5732 5735 5738 5741 5745 5748 5751 5754 5756 5758 5761 5763 5764 5766 5768 5769 5771 5772
5704 5702 5700 5699 5698 5698 5698 5698 5699 5700 5702 5703 5705 5708 5710 5713 5716 5719 5722 5725 5728 5731 5735 5738 5740 5744 5747 5749 5752 5754 5756 5758 5759 5761 5763 5765 5766 5767
5705 5703 5702 5700 5700 5699 5699 5699 5700 5701 5702 5703 5705 5707 5709 5711 5714 5716 5719 5722 5725 5728 5731 5734 5737 5739 5742 5745 5747 5749 5751 5753 5755 5757 5758 5760 5761 5762
5706 5704 5702 5701 5700 5699 5699 5699 5700 5700 5701 5702 5704 5705 5707 5709 5712 5714 5717 5719 5722 5725 5727 5730 5733 5735 5737 5740 5742 5745 5747 5749 5750 5752 5754 5755 5756 5757
5704 5703 5701 5700 5699 5699 5699 5698 5699 5699 5700 5701 5702 5704 5706 5708 5710 5712 5714 5716 5719 5721 5724 5726 5729 5731 5733 5735 5738 5740 5742 5744 5746 5747 5749 5751 5752 5753
5702 5700 5699 5698 5698 5697 5697 5697 5697 5697 5698 5699 5700 5702 5703 5705 5707 5709 5711 5713 5715 5718 5720 5722 5724 5727 5729 5731 5733 5735 5737 5739 5741 5742 5744 5745 5746 5747